TimeCDT,TemperatureF,Dew PointF,Humidity,Sea Level PressureIn,VisibilityMPH,Wind Direction,Wind SpeedMPH,Gust SpeedMPH,PrecipitationIn,Events,Conditions,WindDirDegrees,DateUTC
12:55 AM,55.9,50.0,80,30.01,10.0,SSE,12.7,-,0.00,Rain,Light Rain,160,2013-03-30 05:55:00
1:42 AM,55.4,50.0,82,30.03,9.0,NW,10.4,-,0.01,Rain-Thunderstorm,Light Rain,320,2013-03-30 06:42:00
1:53 AM,55.4,51.8,88,30.03,3.0,North,10.4,-,0.05,Rain-Thunderstorm,Heavy Rain,360,2013-03-30 06:53:00
1:55 AM,55.0,51.1,86,30.02,3.0,Variable,5.8,16.1,0.06,Rain-Thunderstorm,Heavy Rain,0,2013-03-30 06:55:00
2:20 AM,53.6,51.8,94,29.98,2.0,SE,16.1,19.6,0.10,Rain-Thunderstorm,Heavy Rain,140,2013-03-30 07:20:00
2:26 AM,53.6,51.8,94,29.97,2.0,SSE,19.6,-,0.14,Rain,Heavy Rain,160,2013-03-30 07:26:00
2:33 AM,55.4,51.8,88,29.97,3.0,SSE,18.4,-,0.16,Rain,Light Rain,150,2013-03-30 07:33:00
2:42 AM,55.4,51.8,88,29.96,9.0,SSE,18.4,-,0.16,Rain-Thunderstorm,Light Rain,150,2013-03-30 07:42:00
2:55 AM,54.0,51.1,90,29.94,10.0,SE,13.8,-,0.16,Thunderstorm,Mostly Cloudy,140,2013-03-30 07:55:00
3:22 AM,53.6,51.8,94,29.96,10.0,SE,15.0,-,N/A,,Overcast,140,2013-03-30 08:22:00
3:38 AM,53.6,51.8,94,29.95,9.0,SSE,13.8,-,N/A,,Overcast,160,2013-03-30 08:38:00
3:55 AM,53.1,50.0,89,29.92,9.0,SE,6.9,-,N/A,,Mostly Cloudy,130,2013-03-30 08:55:00
4:06 AM,53.6,50.0,88,29.93,9.0,ESE,8.1,-,N/A,,Scattered Clouds,120,2013-03-30 09:06:00
4:48 AM,53.6,50.0,88,29.94,9.0,ESE,8.1,-,N/A,Thunderstorm,Thunderstorm,120,2013-03-30 09:48:00
4:55 AM,53.1,50.0,89,29.92,8.0,East,5.8,-,N/A,Thunderstorm,Thunderstorm,90,2013-03-30 09:55:00
5:03 AM,51.8,50.0,94,29.94,8.0,ESE,5.8,-,N/A,,Overcast,120,2013-03-30 10:03:00
5:55 AM,51.1,50.0,96,29.91,5.0,SE,8.1,-,0.01,,Mostly Cloudy,130,2013-03-30 10:55:00
6:55 AM,48.0,46.9,96,29.91,2.5,South,10.4,-,N/A,,Clear,180,2013-03-30 11:55:00
7:04 AM,53.6,50.0,88,29.93,8.0,South,11.5,-,N/A,,Partly Cloudy,180,2013-03-30 12:04:00
7:55 AM,52.0,48.9,89,29.92,7.0,SSE,4.6,-,N/A,,Overcast,160,2013-03-30 12:55:00
8:55 AM,53.1,50.0,89,29.92,10.0,SW,4.6,-,N/A,,Overcast,220,2013-03-30 13:55:00
9:55 AM,57.9,53.1,84,29.92,10.0,SW,4.6,-,N/A,,Scattered Clouds,230,2013-03-30 14:55:00
10:55 AM,62.1,54.0,75,29.92,10.0,NNW,8.1,-,N/A,,Clear,330,2013-03-30 15:55:00
11:39 AM,62.6,53.6,72,29.95,10.0,North,12.7,17.3,N/A,,Mostly Cloudy,360,2013-03-30 16:39:00
11:55 AM,63.0,53.1,70,29.93,10.0,North,13.8,-,N/A,,Overcast,10,2013-03-30 16:55:00
12:40 PM,64.4,55.4,73,29.95,10.0,NE,11.5,-,N/A,,Scattered Clouds,40,2013-03-30 17:40:00
12:55 PM,64.0,53.1,67,29.93,10.0,NNE,13.8,-,N/A,,Mostly Cloudy,30,2013-03-30 17:55:00
1:04 PM,64.4,53.6,68,29.95,10.0,NNE,13.8,-,N/A,,Scattered Clouds,20,2013-03-30 18:04:00
1:15 PM,62.6,53.6,72,29.95,10.0,North,12.7,16.1,N/A,,Mostly Cloudy,360,2013-03-30 18:15:00
1:55 PM,64.9,53.1,65,29.93,10.0,North,10.4,-,N/A,,Mostly Cloudy,360,2013-03-30 18:55:00
2:55 PM,64.9,52.0,63,29.91,10.0,NE,10.4,-,N/A,,Scattered Clouds,40,2013-03-30 19:55:00
3:55 PM,68.0,51.1,55,29.90,10.0,NNE,8.1,-,N/A,,Scattered Clouds,20,2013-03-30 20:55:00
4:55 PM,69.1,46.9,45,29.88,10.0,Variable,6.9,-,N/A,,Clear,0,2013-03-30 21:55:00
5:55 PM,69.1,42.1,38,29.89,10.0,North,12.7,-,N/A,,Clear,10,2013-03-30 22:55:00
6:55 PM,66.0,41.0,40,29.90,10.0,North,12.7,-,N/A,,Clear,10,2013-03-30 23:55:00
7:55 PM,59.0,37.9,46,29.92,10.0,NNE,8.1,-,N/A,,Clear,20,2013-03-31 00:55:00
8:55 PM,55.0,39.0,55,29.94,10.0,NNE,5.8,-,N/A,,Partly Cloudy,30,2013-03-31 01:55:00
9:55 PM,53.1,39.0,59,29.96,10.0,North,8.1,-,N/A,,Clear,360,2013-03-31 02:55:00
10:55 PM,54.0,41.0,62,30.01,10.0,NW,16.1,-,N/A,,Overcast,320,2013-03-31 03:55:00
11:55 PM,51.1,43.0,74,30.01,10.0,WNW,6.9,-,0.00,,Overcast,290,2013-03-31 04:55:00